Weather in Bazhyn-Alaak

Russia / Tyva Republic     51°13′49″N   91°43′59″E
temp.,
°C
wind,
m/s
gust,
m/s
humid.,
%
clouds,
%
prec.,
mm/h
press.,
hPa
HPBL,
m
26 january, tue
tue2601:00−24ne0089100 0.0 103920
04:00−24s0090100 0.0 103720
07:00−24w0097100 0.1 103720
10:00−23wnw0095100 0.0 103721
13:00−20nw1188100 0.0 1035173
16:00−21wnw1191100 0.0 103523
19:00−23se1183100 0.0 103820
22:00−26sse118375 0.0 104120
27 january, wed
wed2701:00−27s118037 0.0 104220
04:00−28s117815 0.0 104320
07:00−29nne007931 0.0 104419
10:00−24n117882 0.0 104234
13:00−20nnw227691 0.0 1040193
16:00−19nw2283100 0.0 1038108
19:00−22nw1184100 0.0 103920
22:00−23nnw1185100 0.0 103820
28 january, thu
thu2801:00−22nnw1188100 0.0 103720
04:00−20nnw1186100 0.0 103720
07:00−20nnw1184100 0.0 103720
10:00−17nnw1185100 0.0 103732
13:00−13nw1179100 0.0 103663
16:00−13nw118487 0.0 103521
19:00−17ne008051 0.0 103621
22:00−18wsw00858 0.0 103620
29 january, fri
fri2901:00−18s01884 0.0 103520
04:00−16wsw008462 0.0 103421
07:00−15wsw008281 0.0 103321
10:00−12nnw1184100 0.0 103126
13:00−9nw1181100 0.0 102977
16:00−9nw1183100 0.0 102624
19:00−10s1276100 0.0 102822
22:00−10s3374100 0.0 102921
30 january, sat
sat3001:00−9s4472100 0.0 103035
04:00−12sse117161 0.0 103021
07:00−11s226880 0.0 103021
10:00−8s1173100 0.0 103024
13:00−6w1271100 0.0 1028156
16:00−6sw117796 0.0 102739
19:00−8s227198 0.0 103021
22:00−11s227174 0.0 103121